SCP
-0 -0 -0 0 0 0 0 0 0 0 0 0 0 0 0 0 0 0 0 0 0 0 0 0 0 0 0 0 0 0 0 0 0 0 0 0 0 0
-0 -0 -0 0 0 0 0 0 0 0 0 0 0 0 0 0 0 0 0 0 0 0 0 0 0 0 0 0 0 0 0 0 0 0 0 0 0 0
0 0 0 0 0 -0 -0 0 0 0 0 0 0 0 0 0 0 0 0 0 0 0 0 0 0 0 0 0 0 0 0 0 0 0 0 0 0 0
0 0 0 0 0 0 -0 0 0 0 0 0 0 0 0 0 0 0 0 0 0 0 0 0 0 0 0 0 0 0 0 0 0 0 0 0 0 0
0 0 0 0 0 0 0 0 0 0 0 0 0 0 0 0 0 0 0 0 0 0 0 0 0 0 0 0 0 0 0 0 0 0 0 0 0 0
0 0 0 0 0 0 0 0 -0 -0 0 0 0 0 0 0 0 0 0 0 0 0 0 0 0 0 0 0 0 0 0 0 0 0 0 0 0 0
0 0 0 0 0 0 0 0 0 0 0 0 0 0 0 0 0 0 0 0 0 0 0 0 0 0 0 0 0 0 0 0 0 0 0 0 0 0
0 0 0 0 0 0 0 0 0 0 0 0 0 0 0 0 0 0 0 0 0 0 0 0 0 0 0 0 0 0 0 0 0 0 0 0 0 0
0 0 0 0 0 0 0 0 0 0 0 0 0 0 0 0 0 0 0 0 0 0 -0 -0 -0 -0 -0 0 0 0 0 0 0 0 0 0 0 0
0 0 0 0 0 0 0 0 0 0 0 0 0 0 0 0 0 0 0 0 0 0 -0 -0 -0 -0 -0 0 0 0 0 0 0 0 0 0 0 0
0 0 0 0 0 0 0 0 0 0 0 0 0 0 0 0 0 0 0 0 0 0 -0 -0 -0 -0 -0 -0 0 0 0 0 0 0 0 0 0 0
0 0 0 0 0 0 0 0 0 0 0 0 0 0 0 0 0 0 0 0 0 0 0 -0 -0 -0 -0 -0 0 0 0 0 0 0 0 0 0 0
0 0 0 0 0 0 0 0 0 0 0 0 0 0 0 0 0 0 0 0 0 0 0 0 0 0 0 0 0 0 0 0 0 0 0 0 0 0
0 0 0 0 0 0 0 0 0 0 0 0 0 0 0 0 0 0 -0 -0 -0 0 0 0 0 0 0 0 0 0 0 -0 -0 -0 0 0 0 0
0 0 0 0 0 0 0 0 0 0 0 0 0 0 0 0 0 0 -0 -0 -0 -0 0 0 0 0 0 0 0 0 0 -0 -0 -0 0 0 0 0
0 0 0 0 0 0 0 0 0 0 0 0 0 0 0 0 0 0 0 -0 -0 -0 0 0 0 0 0 0 0 0 0 -0 -0 -0 -0 0 0 0
0 0 0 0 0 0 0 0 0 0 0 0 0 0 0 0 0 0 0 0 0 0 0 0 0 0 0 0 0 0 0 0 -0 -0 -0 0 0 0
0 0 0 0 0 0 0 0 0 0 0 0 0 0 0 0 0 0 0 0 0 0 0 0 0 0 0 0 0 0 0 0 0 -0 -0 0 0 0
0 0 0 0 0 0 0 0 0 0 0 0 0 0 0 0 0 0 0 0 0 0 0 0 0 0 0 0 0 0 0 0 0 0 -0 -0 0 0
0 0 0 0 0 0 0 0 0 0 0 0 0 0 0 0 0 0 0 0 0 0 0 0 0 0 0 0 0 0 0 0 0 0 0 0 -0 -0
0 0 0 0 0 0 0 0 0 0 0 0 0 0 0 0 0 0 0 0 0 0 0 0 0 0 0 0 0 0 0 0 0 0 0 0 0 0
0 0 0 0 0 0 0 0 0 0 0 0 0 0 0 0 0 0 0 0 0 0 0 0 0 0 0 0 0 0 0 0 0 0 0 0 0 0
0 0 0 0 0 0 0 0 0 0 0 0 0 0 0 0 0 0 0 0 0 0 0 0 0 0 0 0 0 0 0 0 0 0 0 0 0 0
Wind_Speed
3 3 3 2 2 2 2 2 2 1 2 3 3 3 3 2 3 2 2 4 5 5 6 6 5 5 5 5 6 6 6 6 5 5 6 5 5 6
2 4 3 2 3 3 2 2 1 2 1 2 2 3 3 3 4 2 3 6 6 6 6 6 6 6 6 6 6 7 6 5 5 5 5 5 6 6
3 3 3 2 3 3 2 2 2 1 0 2 2 3 3 4 4 3 3 3 3 6 6 6 6 6 6 7 7 7 5 4 4 5 5 6 6 7
3 3 3 2 3 2 2 2 2 1 1 1 2 2 3 3 3 4 4 4 3 6 6 7 7 7 7 7 7 7 6 4 4 5 6 6 6 7
2 2 2 2 2 2 2 2 2 2 1 0 2 2 2 3 3 4 4 3 4 5 6 7 7 7 7 7 7 7 7 6 5 5 5 6 7 8
2 2 2 1 1 1 2 2 2 2 2 1 2 2 2 3 2 3 4 3 4 4 4 6 7 8 8 8 8 8 7 7 7 6 6 6 7 8
3 3 3 4 5 3 2 1 1 1 1 1 2 2 3 3 3 3 3 4 4 2 3 4 4 4 5 7 8 8 8 8 8 8 7 7 8 8
3 3 3 4 6 7 7 6 3 1 1 1 1 2 3 3 3 3 3 3 4 3 2 4 3 3 4 3 6 8 8 8 8 8 8 8 8 8
2 2 4 5 5 3 5 7 6 7 4 1 1 3 3 3 3 3 3 3 4 4 2 4 3 3 4 5 8 8 8 8 8 8 8 8 8 8
2 1 2 3 4 4 3 4 4 4 4 2 2 4 4 3 3 3 4 4 4 3 1 3 3 4 5 4 8 8 8 9 9 9 9 8 7 8
2 2 2 2 6 7 4 4 5 5 6 7 6 6 7 7 4 2 2 2 4 4 2 2 3 4 4 4 5 8 9 9 9 10 9 8 7 7
2 3 4 5 8 7 3 2 4 5 5 6 6 6 5 5 6 1 1 1 2 4 3 2 3 3 5 3 3 4 5 7 9 8 9 8 8 5
1 2 3 8 8 8 6 2 4 6 4 3 3 3 4 3 3 2 1 2 2 4 3 2 2 2 3 5 4 4 3 4 4 5 7 8 8 6
1 2 3 7 8 9 6 7 8 6 2 2 3 3 3 4 4 4 3 3 4 5 5 2 3 3 3 5 5 4 4 4 3 4 4 6 7 8
2 4 6 8 7 6 7 9 7 3 2 2 3 4 4 4 4 3 4 4 4 4 4 3 3 3 3 4 5 5 5 4 3 3 4 4 5 4
2 4 7 7 5 5 6 5 3 2 2 3 4 4 3 3 3 3 3 3 3 4 5 4 4 4 4 5 5 6 5 4 4 4 4 5 5 5
2 2 2 3 3 3 4 4 3 3 3 3 3 4 4 3 4 3 3 3 3 4 5 4 4 4 6 5 5 6 5 5 5 4 4 6 5 5
2 1 2 3 3 4 4 4 3 3 3 3 3 4 4 5 5 4 3 3 4 5 5 5 4 5 5 5 7 6 4 5 5 5 4 6 8 6
1 2 3 3 4 4 4 4 4 4 4 3 4 4 4 5 5 5 4 4 5 5 5 4 4 4 7 9 6 5 5 6 5 5 5 6 8 7
2 3 4 4 4 4 4 4 4 4 4 4 4 5 5 5 5 5 5 6 6 6 6 5 4 5 7 9 8 7 7 6 5 7 6 6 6 8
3 3 4 4 4 4 4 4 4 5 5 5 5 5 5 5 5 6 6 8 7 6 7 7 7 10 7 5 7 7 5 8 10 8 7 7 8 7
3 4 4 4 4 4 4 4 4 5 5 5 5 5 5 5 6 7 6 6 6 6 8 8 7 5 5 7 9 9 9 7 8 13 14 12 7 7
4 4 4 4 4 4 4 4 5 5 5 5 5 5 5 5 5 6 7 7 7 8 8 8 6 5 6 7 8 8 10 9 7 7 7 11 15 17
Wind_Direction
46 45 42 20 30 39 63 101 125 53 327 314 322 325 326 318 314 311 316 324 327 330 336 337 337 333 326 326 318 307 298 289 282 279 274 270 267 258
38 46 34 19 27 30 38 40 85 137 258 298 296 305 324 342 342 327 314 325 320 320 321 324 328 324 321 321 322 317 302 284 276 276 279 275 267 266
34 48 29 27 35 25 30 37 45 91 136 299 304 319 346 347 342 336 327 318 316 318 316 320 321 317 318 320 319 325 314 295 285 279 277 278 275 267
28 38 18 32 34 23 28 25 20 41 106 318 314 330 334 335 332 335 338 337 321 325 327 323 321 319 318 318 319 322 323 313 303 293 285 283 282 277
38 42 11 38 22 12 21 16 4 20 43 29 312 315 319 336 340 333 334 329 326 325 327 327 321 316 313 311 313 314 315 311 305 298 294 290 287 285
36 43 34 50 24 10 21 9 16 24 17 11 333 324 315 318 340 332 331 328 321 324 332 331 327 321 314 308 303 302 300 299 296 292 289 288 288 286
27 27 35 43 39 33 36 11 35 31 11 5 338 335 327 334 327 312 315 314 308 311 320 321 323 322 318 311 304 298 295 293 291 288 286 283 283 283
31 16 24 30 21 20 25 26 27 21 342 334 311 309 296 296 304 316 317 333 315 310 319 307 318 313 311 310 310 307 301 298 295 293 288 282 280 279
43 29 23 16 15 9 8 12 10 6 353 267 261 275 278 280 297 308 303 294 277 287 309 295 304 303 303 314 314 314 315 313 307 303 299 291 284 280
35 47 35 360 1 5 6 2 348 338 328 325 260 266 275 274 252 264 274 293 289 290 289 284 299 299 304 303 311 316 321 319 314 308 302 297 290 281
13 21 20 1 354 5 14 353 339 328 329 334 330 326 325 330 331 345 339 337 312 300 299 279 289 299 295 291 307 323 323 316 311 308 306 302 294 291
352 347 349 351 347 354 360 346 329 312 320 331 336 335 332 333 339 330 270 296 298 295 297 295 290 314 305 292 302 312 313 308 306 302 301 297 294 292
335 326 325 341 345 344 343 325 306 312 314 320 323 325 326 325 321 309 262 229 259 271 285 298 291 293 278 293 297 290 292 298 302 297 291 289 284 274
284 293 307 332 340 340 338 329 331 338 336 333 327 316 309 303 297 297 289 272 253 258 271 266 268 272 277 287 290 294 293 287 286 288 289 293 288 280
288 312 327 335 338 337 336 337 339 339 329 318 303 291 280 280 290 300 301 297 292 285 290 274 268 271 260 266 278 283 293 289 275 282 288 285 279 277
332 328 332 335 333 322 328 332 328 308 302 283 282 283 290 297 296 292 291 298 300 296 291 284 276 269 270 269 268 278 278 279 288 287 283 278 275 266
321 342 340 333 329 322 318 312 308 312 308 294 290 295 297 296 292 291 282 284 281 288 296 296 289 274 257 258 270 269 272 277 280 284 288 288 278 268
353 323 302 296 293 294 296 299 297 293 286 283 286 288 290 291 292 290 282 276 279 281 282 287 303 309 303 278 237 257 267 271 278 279 272 278 283 277
324 283 283 285 284 286 285 284 285 284 281 280 282 284 285 288 290 290 289 286 283 280 279 277 278 283 295 296 278 238 262 279 279 278 270 266 276 280
264 266 274 277 278 282 283 282 283 287 284 279 278 279 279 281 285 284 281 278 280 283 285 275 261 257 265 278 285 279 254 255 269 277 279 277 274 277
272 269 268 271 273 275 276 277 279 281 282 281 282 282 280 278 280 279 278 279 279 280 282 280 268 270 271 272 278 279 268 252 254 263 272 281 286 284
270 271 273 274 275 276 277 279 282 283 284 282 282 282 281 279 279 282 283 284 282 279 281 284 283 280 266 267 274 281 285 282 270 268 262 257 262 268
270 272 273 277 276 276 275 277 281 284 282 282 282 283 284 283 281 281 282 281 282 284 288 290 288 275 268 266 273 279 283 287 287 285 275 265 261 263